Location: Maccacari
(45.1333°N, 11.1333°E)
Time: 08:40:25
(UTC+00:00)

USA 186 - Pass Details

Date: 18 September 2020
Orbit: 261 x 425 km, 96.9° (Epoch: 12 October)

Event Time Altitude Azimuth Distance (km) Brightness Sun altitude
Exits shadow 18:49:23 26° 167° (SSE) 822 2.9 -16.3°
Maximum altitude 18:50:59 88° 83° (E) 411 1.6 -16.5°
Drops below altitude 10° 18:54:13 10° 349° (NNW) 1,502 5.0 -17.1°
Sets 18:56:16 0° 349° (N) 2,388 6.0 -17.4°
